| time (UTC) | temp C | wind direction | speed KPH | gust KPH | rain 1hr cm | rain 24hr cm | rain mn cm | humidity % | barometer mb |
| 20260509173242 | 25 | 250 | 0.0 | 0.0 | 0.00 | 0.00 | 0.00 | 11 | 1021.4 |
| 20260509172738 | 25 | 17 | 0.0 | 1.6 | 0.00 | 0.00 | 0.00 | 10 | 1021.8 |
| 20260509172233 | 25 | 189 | 0.0 | 1.6 | 0.00 | 0.00 | 0.00 | 11 | 1021.4 |
| 20260509172228 | 24 | 333 | 0.0 | 0.0 | 0.00 | 0.00 | 0.00 | 10 | 1021.4 |
| 20260509171222 | 24 | 229 | 0.0 | 0.0 | 0.00 | 0.00 | 0.00 | 12 | 1021.4 |
| 20260509170716 | 24 | 268 | 0.0 | 0.0 | 0.00 | 0.00 | 0.00 | 12 | 1021.4 |
| 20260509170211 | 24 | 50 | 0.0 | 0.0 | 0.00 | 0.00 | 0.00 | 12 | 1021.8 |
| 20260509165707 | 24 | 334 | 0.0 | 1.6 | 0.00 | 0.00 | 0.00 | 13 | 1021.8 |
| 20260509165200 | 24 | 301 | 0.0 | 1.6 | 0.00 | 0.00 | 0.00 | 13 | 1021.8 |
| 20260509164655 | 24 | 105 | 0.0 | 0.0 | 0.00 | 0.00 | 0.00 | 12 | 1021.8 |
| 20260509164151 | 24 | 256 | 0.0 | 0.0 | 0.00 | 0.00 | 0.00 | 12 | 1021.8 |
| 20260509163644 | 24 | 270 | 0.0 | 0.0 | 0.00 | 0.00 | 0.00 | 11 | 1021.8 |
| 20260509163138 | 24 | 42 | 0.0 | 0.0 | 0.00 | 0.00 | 0.00 | 12 | 1021.8 |
| 20260509162635 | 24 | 222 | 0.0 | 0.0 | 0.00 | 0.00 | 0.00 | 13 | 1021.8 |
| 20260509162626 | 24 | 353 | 0.0 | 0.0 | 0.00 | 0.00 | 0.00 | 13 | 1021.8 |
| 20260509162231 | 24 | 291 | 0.0 | 0.0 | 0.00 | 0.00 | 0.00 | 13 | 1021.4 |
| 20260509161119 | 23 | 258 | 0.0 | 0.0 | 0.00 | 0.00 | 0.00 | 12 | 1021.8 |
| 20260509160613 | 23 | 226 | 0.0 | 0.0 | 0.00 | 0.00 | 0.00 | 12 | 1021.8 |
| 20260509160608 | 23 | 202 | 0.0 | 0.0 | 0.00 | 0.00 | 0.00 | 10 | 1021.8 |
| 20260509155603 | 23 | 209 | 0.0 | 0.0 | 0.00 | 0.00 | 0.00 | 12 | 1021.8 |
| 20260509155057 | 22 | 254 | 0.0 | 0.0 | 0.00 | 0.00 | 0.00 | 14 | 1021.8 |
| 20260509154551 | 22 | 223 | 0.0 | 0.0 | 0.00 | 0.00 | 0.00 | 16 | 1021.8 |
| 20260509154048 | 22 | 227 | 0.0 | 0.0 | 0.00 | 0.00 | 0.00 | 18 | 1021.8 |
| 20260509153542 | 21 | 222 | 0.0 | 0.0 | 0.00 | 0.00 | 0.00 | 15 | 1021.8 |
| 20260509153036 | 21 | 80 | 0.0 | 0.0 | 0.00 | 0.00 | 0.00 | 18 | 1021.4 |
| 20260509152531 | 21 | 203 | 0.0 | 0.0 | 0.00 | 0.00 | 0.00 | 18 | 1021.8 |
| 20260509152025 | 20 | 217 | 0.0 | 0.0 | 0.00 | 0.00 | 0.00 | 19 | 1021.8 |
| 20260509151520 | 20 | 297 | 0.0 | 0.0 | 0.00 | 0.00 | 0.00 | 19 | 1021.8 |
| 20260509151015 | 20 | 195 | 0.0 | 0.0 | 0.00 | 0.00 | 0.00 | 23 | 1021.8 |
| 20260509151009 | 19 | 264 | 0.0 | 0.0 | 0.00 | 0.00 | 0.00 | 20 | 1021.8 |
| 20260509150003 | 18 | 145 | 0.0 | 0.0 | 0.00 | 0.00 | 0.00 | 22 | 1021.8 |
| 20260509145501 | 18 | 292 | 0.0 | 0.0 | 0.00 | 0.00 | 0.00 | 25 | 1021.8 |
| 20260509144954 | 17 | 25 | 0.0 | 0.0 | 0.00 | 0.00 | 0.00 | 23 | 1021.8 |
| 20260509144948 | 16 | 289 | 0.0 | 0.0 | 0.00 | 0.00 | 0.00 | 24 | 1021.4 |
| 20260509143943 | 16 | 167 | 0.0 | 0.0 | 0.00 | 0.00 | 0.00 | 24 | 1021.4 |
| 20260509143438 | 15 | 215 | 0.0 | 0.0 | 0.00 | 0.00 | 0.00 | 25 | 1021.4 |
| 20260509143433 | 14 | 216 | 0.0 | 0.0 | 0.00 | 0.00 | 0.00 | 30 | 1021.4 |
| 20260509142427 | 13 | 216 | 0.0 | 0.0 | 0.00 | 0.00 | 0.00 | 40 | 1021.4 |
| 20260509141921 | 13 | 213 | 0.0 | 0.0 | 0.00 | 0.00 | 0.00 | 42 | 1021.4 |
| 20260509141415 | 13 | 270 | 0.0 | 0.0 | 0.00 | 0.00 | 0.00 | 44 | 1021.4 |
| 20260509140912 | 13 | 219 | 0.0 | 0.0 | 0.00 | 0.00 | 0.00 | 45 | 1021.4 |
| 20260509140405 | 12 | 242 | 0.0 | 0.0 | 0.00 | 0.00 | 0.00 | 47 | 1021.4 |
| 20260509135900 | 12 | 233 | 0.0 | 0.0 | 0.00 | 0.00 | 0.00 | 48 | 1021.4 |
| 20260509135356 | 12 | 234 | 0.0 | 0.0 | 0.00 | 0.00 | 0.00 | 48 | 1021.4 |
| 20260509134850 | 12 | 260 | 0.0 | 0.0 | 0.00 | 0.00 | 0.00 | 48 | 1021.4 |
| 20260509134344 | 12 | 260 | 0.0 | 0.0 | 0.00 | 0.00 | 0.00 | 48 | 1021.4 |
| 20260509133840 | 12 | 261 | 0.0 | 0.0 | 0.00 | 0.00 | 0.00 | 48 | 1021.4 |
| 20260509133334 | 12 | 265 | 0.0 | 0.0 | 0.00 | 0.00 | 0.00 | 48 | 1021.4 |
| 20260509132828 | 12 | 272 | 0.0 | 0.0 | 0.00 | 0.00 | 0.00 | 49 | 1021.4 |
| 20260509132325 | 12 | 272 | 0.0 | 0.0 | 0.00 | 0.00 | 0.00 | 49 | 1021.4 |
| 20260509132319 | 12 | 278 | 0.0 | 0.0 | 0.00 | 0.00 | 0.00 | 49 | 1021.4 |
| 20260509131313 | 12 | 277 | 0.0 | 0.0 | 0.00 | 0.00 | 0.00 | 49 | 1021.1 |
| 20260509130808 | 12 | 272 | 0.0 | 0.0 | 0.00 | 0.00 | 0.00 | 49 | 1021.4 |
| 20260509130302 | 12 | 246 | 0.0 | 0.0 | 0.00 | 0.00 | 0.00 | 48 | 1021.1 |
| 20260509125756 | 12 | 249 | 0.0 | 0.0 | 0.00 | 0.00 | 0.00 | 48 | 1021.4 |
| 20260509125252 | 12 | 250 | 0.0 | 0.0 | 0.00 | 0.00 | 0.00 | 48 | 1021.1 |
| 20260509124746 | 12 | 250 | 0.0 | 0.0 | 0.00 | 0.00 | 0.00 | 48 | 1021.1 |
| 20260509124241 | 12 | 251 | 0.0 | 0.0 | 0.00 | 0.00 | 0.00 | 48 | 1021.1 |
| 20260509123737 | 12 | 217 | 0.0 | 0.0 | 0.00 | 0.00 | 0.00 | 47 | 1021.1 |
| 20260509123230 | 12 | 217 | 0.0 | 0.0 | 0.00 | 0.00 | 0.00 | 47 | 1021.1 |
| 20260509122726 | 12 | 217 | 0.0 | 0.0 | 0.00 | 0.00 | 0.00 | 47 | 1020.7 |
| 20260509122221 | 12 | 217 | 0.0 | 0.0 | 0.00 | 0.00 | 0.00 | 47 | 1020.7 |
| 20260509121715 | 12 | 217 | 0.0 | 0.0 | 0.00 | 0.00 | 0.00 | 47 | 1021.1 |
| 20260509121709 | 12 | 217 | 0.0 | 0.0 | 0.00 | 0.00 | 0.00 | 46 | 1021.1 |
| 20260509120706 | 12 | 217 | 0.0 | 0.0 | 0.00 | 0.00 | 0.00 | 45 | 1021.1 |
| 20260509120158 | 12 | 217 | 0.0 | 0.0 | 0.00 | 0.00 | 0.00 | 45 | 1021.1 |
| 20260509115653 | 12 | 217 | 0.0 | 0.0 | 0.00 | 0.00 | 0.00 | 45 | 1020.7 |
| 20260509115149 | 12 | 217 | 0.0 | 0.0 | 0.00 | 0.00 | 0.00 | 45 | 1020.7 |
| 20260509114642 | 12 | 217 | 0.0 | 0.0 | 0.00 | 0.00 | 0.00 | 45 | 1020.7 |
| 20260509114137 | 13 | 217 | 0.0 | 0.0 | 0.00 | 0.00 | 0.00 | 44 | 1021.1 |
| 20260509113633 | 13 | 217 | 0.0 | 0.0 | 0.00 | 0.00 | 0.00 | 44 | 1021.1 |
| 20260509113127 | 13 | 217 | 0.0 | 0.0 | 0.00 | 0.00 | 0.00 | 44 | 1021.1 |
| 20260509113122 | 13 | 222 | 0.0 | 0.0 | 0.00 | 0.00 | 0.00 | 44 | 1021.1 |
| 20260509112117 | 13 | 222 | 0.0 | 0.0 | 0.00 | 0.00 | 0.00 | 44 | 1020.7 |
| 20260509111610 | 13 | 222 | 0.0 | 0.0 | 0.00 | 0.00 | 0.00 | 43 | 1021.1 |
| 20260509111106 | 13 | 189 | 0.0 | 0.0 | 0.00 | 0.00 | 0.00 | 43 | 1021.1 |
| 20260509110601 | 13 | 189 | 0.0 | 0.0 | 0.00 | 0.00 | 0.00 | 43 | 1021.1 |
| 20260509110056 | 13 | 200 | 0.0 | 0.0 | 0.00 | 0.00 | 0.00 | 42 | 1021.1 |
| 20260509105550 | 13 | 185 | 0.0 | 0.0 | 0.00 | 0.00 | 0.00 | 42 | 1021.1 |
| 20260509105045 | 13 | 205 | 0.0 | 0.0 | 0.00 | 0.00 | 0.00 | 42 | 1021.1 |
| 20260509104539 | 13 | 178 | 0.0 | 0.0 | 0.00 | 0.00 | 0.00 | 41 | 1020.7 |
| 20260509104034 | 13 | 168 | 0.0 | 0.0 | 0.00 | 0.00 | 0.00 | 41 | 1020.7 |
| 20260509103530 | 13 | 169 | 0.0 | 0.0 | 0.00 | 0.00 | 0.00 | 41 | 1020.7 |
| 20260509103023 | 13 | 186 | 0.0 | 0.0 | 0.00 | 0.00 | 0.00 | 41 | 1021.1 |
| 20260509102518 | 13 | 173 | 0.0 | 0.0 | 0.00 | 0.00 | 0.00 | 41 | 1020.7 |
| 20260509102014 | 13 | 165 | 0.0 | 0.0 | 0.00 | 0.00 | 0.00 | 41 | 1020.7 |
| 20260509101508 | 13 | 189 | 0.0 | 0.0 | 0.00 | 0.00 | 0.00 | 42 | 1021.1 |
| 20260509101002 | 13 | 189 | 0.0 | 0.0 | 0.00 | 0.00 | 0.00 | 42 | 1020.7 |
| 20260509100458 | 13 | 213 | 0.0 | 0.0 | 0.00 | 0.00 | 0.00 | 41 | 1021.4 |
| 20260509095952 | 13 | 213 | 0.0 | 0.0 | 0.00 | 0.00 | 0.00 | 41 | 1020.7 |
| 20260509095446 | 13 | 213 | 0.0 | 0.0 | 0.00 | 0.00 | 0.00 | 40 | 1020.7 |
| 20260509094942 | 13 | 191 | 0.0 | 0.0 | 0.00 | 0.00 | 0.00 | 41 | 1021.1 |
| 20260509094437 | 13 | 181 | 0.0 | 0.0 | 0.00 | 0.00 | 0.00 | 41 | 1021.4 |
| 20260509094431 | 13 | 198 | 0.0 | 0.0 | 0.00 | 0.00 | 0.00 | 41 | 1021.1 |
| 20260509093427 | 13 | 215 | 0.0 | 0.0 | 0.00 | 0.00 | 0.00 | 42 | 1021.1 |
| 20260509092919 | 13 | 215 | 0.0 | 0.0 | 0.00 | 0.00 | 0.00 | 41 | 1021.4 |
| 20260509092416 | 13 | 215 | 0.0 | 0.0 | 0.00 | 0.00 | 0.00 | 40 | 1021.1 |
| 20260509091910 | 13 | 215 | 0.0 | 0.0 | 0.00 | 0.00 | 0.00 | 40 | 1021.1 |
| 20260509091405 | 13 | 215 | 0.0 | 0.0 | 0.00 | 0.00 | 0.00 | 39 | 1021.1 |
| 20260509091400 | 13 | 215 | 0.0 | 0.0 | 0.00 | 0.00 | 0.00 | 40 | 1021.1 |
| 20260509090354 | 14 | 215 | 0.0 | 0.0 | 0.00 | 0.00 | 0.00 | 40 | 1021.1 |
| 20260509085848 | 14 | 217 | 0.0 | 0.0 | 0.00 | 0.00 | 0.00 | 40 | 1020.7 |
| 20260509085343 | 14 | 249 | 0.0 | 0.0 | 0.00 | 0.00 | 0.00 | 40 | 1021.1 |
| 20260509084838 | 14 | 278 | 0.0 | 0.0 | 0.00 | 0.00 | 0.00 | 41 | 1021.1 |
| 20260509084332 | 15 | 229 | 0.0 | 0.0 | 0.00 | 0.00 | 0.00 | 41 | 1021.1 |
| 20260509083827 | 15 | 272 | 0.0 | 0.0 | 0.00 | 0.00 | 0.00 | 39 | 1021.4 |
| 20260509083323 | 15 | 272 | 0.0 | 0.0 | 0.00 | 0.00 | 0.00 | 38 | 1021.4 |
| 20260509082816 | 15 | 272 | 0.0 | 0.0 | 0.00 | 0.00 | 0.00 | 37 | 1021.4 |
| 20260509082311 | 15 | 274 | 0.0 | 0.0 | 0.00 | 0.00 | 0.00 | 36 | 1021.1 |
| 20260509081807 | 15 | 244 | 0.0 | 0.0 | 0.00 | 0.00 | 0.00 | 36 | 1021.1 |
| 20260509081300 | 15 | 277 | 0.0 | 0.0 | 0.00 | 0.00 | 0.00 | 35 | 1021.4 |
| 20260509080755 | 15 | 270 | 0.0 | 0.0 | 0.00 | 0.00 | 0.00 | 35 | 1021.4 |
| 20260509080253 | 15 | 319 | 0.0 | 0.0 | 0.00 | 0.00 | 0.00 | 35 | 1021.4 |